| time (UTC) | temp F | wind direction | speed MPH | gust MPH | rain 1hr in | rain 24hr in | rain mn in | humidity % | barometer mb |
| 20260502215203 | 53 | 108 | 1.0 | 5.0 | 0.00 | 0.00 | 0.00 | 44 | 1016.3 |
| 20260502214703 | 53 | 121 | 1.0 | 5.0 | 0.00 | 0.00 | 0.00 | 46 | 1016.2 |
| 20260502213703 | 52 | 140 | 1.0 | 5.0 | 0.00 | 0.00 | 0.00 | 44 | 1016.2 |
| 20260502213204 | 53 | 164 | 1.0 | 6.0 | 0.00 | 0.00 | 0.00 | 44 | 1016.2 |
| 20260502212703 | 53 | 149 | 0.0 | 2.0 | 0.00 | 0.00 | 0.00 | 43 | 1016.2 |
| 20260502211703 | 53 | 154 | 1.0 | 3.0 | 0.00 | 0.00 | 0.00 | 44 | 1016.1 |
| 20260502211204 | 53 | 14 | 1.0 | 5.0 | 0.00 | 0.00 | 0.00 | 43 | 1016.1 |
| 20260502210702 | 53 | 103 | 2.0 | 5.0 | 0.00 | 0.00 | 0.00 | 44 | 1016.2 |
| 20260502210203 | 53 | 35 | 1.0 | 3.0 | 0.00 | 0.00 | 0.00 | 44 | 1016.1 |
| 20260502205704 | 53 | 16 | 0.0 | 3.0 | 0.00 | 0.00 | 0.00 | 42 | 1016.1 |
| 20260502205203 | 54 | 46 | 1.0 | 5.0 | 0.00 | 0.00 | 0.00 | 42 | 1016.1 |
| 20260502204703 | 54 | 133 | 1.0 | 6.0 | 0.00 | 0.00 | 0.00 | 42 | 1016.1 |
| 20260502204203 | 54 | 119 | 1.0 | 3.0 | 0.00 | 0.00 | 0.00 | 43 | 1016.1 |
| 20260502203704 | 54 | 109 | 2.0 | 5.0 | 0.00 | 0.00 | 0.00 | 41 | 1016.1 |
| 20260502203203 | 54 | 110 | 0.0 | 3.0 | 0.00 | 0.00 | 0.00 | 44 | 1016.2 |
| 20260502201703 | 54 | 153 | 0.0 | 2.0 | 0.00 | 0.00 | 0.00 | 43 | 1016.3 |
| 20260502201203 | 54 | 12 | 1.0 | 5.0 | 0.00 | 0.00 | 0.00 | 41 | 1016.3 |
| 20260502200704 | 53 | 158 | 1.0 | 6.0 | 0.00 | 0.00 | 0.00 | 43 | 1016.3 |
| 20260502200203 | 53 | 21 | 0.0 | 3.0 | 0.00 | 0.00 | 0.00 | 42 | 1016.2 |
| 20260502195704 | 53 | 11 | 2.0 | 6.0 | 0.00 | 0.00 | 0.00 | 43 | 1016.5 |
| 20260502195204 | 53 | 145 | 1.0 | 5.0 | 0.00 | 0.00 | 0.00 | 42 | 1016.4 |
| 20260502194203 | 54 | 136 | 2.0 | 7.0 | 0.00 | 0.00 | 0.00 | 44 | 1016.6 |
| 20260502193703 | 54 | 133 | 1.0 | 3.0 | 0.00 | 0.00 | 0.00 | 42 | 1016.5 |
| 20260502193203 | 54 | 120 | 1.0 | 7.0 | 0.00 | 0.00 | 0.00 | 42 | 1016.5 |
| 20260502192705 | 54 | 53 | 1.0 | 7.0 | 0.00 | 0.00 | 0.00 | 42 | 1016.5 |
| 20260502192203 | 54 | 147 | 2.0 | 7.0 | 0.00 | 0.00 | 0.00 | 43 | 1016.6 |
| 20260502191703 | 54 | 128 | 1.0 | 6.0 | 0.00 | 0.00 | 0.00 | 43 | 1016.7 |
| 20260502191203 | 54 | 50 | 1.0 | 8.0 | 0.00 | 0.00 | 0.00 | 41 | 1016.7 |
| 20260502190705 | 54 | 47 | 1.0 | 3.0 | 0.00 | 0.00 | 0.00 | 42 | 1016.7 |
| 20260502190205 | 54 | 132 | 1.0 | 5.0 | 0.00 | 0.00 | 0.00 | 43 | 1016.8 |
| 20260502185703 | 54 | 129 | 1.0 | 5.0 | 0.00 | 0.00 | 0.00 | 42 | 1016.8 |
| 20260502185204 | 54 | 121 | 2.0 | 5.0 | 0.00 | 0.00 | 0.00 | 41 | 1016.8 |
| 20260502184703 | 54 | 123 | 2.0 | 8.0 | 0.00 | 0.00 | 0.00 | 41 | 1016.8 |
| 20260502184204 | 54 | 107 | 2.0 | 8.0 | 0.00 | 0.00 | 0.00 | 41 | 1016.8 |
| 20260502183704 | 54 | 21 | 1.0 | 7.0 | 0.00 | 0.00 | 0.00 | 44 | 1016.8 |
| 20260502182703 | 54 | 153 | 2.0 | 12.0 | 0.00 | 0.00 | 0.00 | 44 | 1016.9 |
| 20260502182203 | 53 | 129 | 2.0 | 6.0 | 0.00 | 0.00 | 0.00 | 44 | 1016.8 |
| 20260502181703 | 53 | 100 | 1.0 | 5.0 | 0.00 | 0.00 | 0.00 | 42 | 1017.0 |
| 20260502181203 | 53 | 11 | 0.0 | 2.0 | 0.00 | 0.00 | 0.00 | 43 | 1017.0 |
| 20260502180703 | 54 | 119 | 2.0 | 6.0 | 0.00 | 0.00 | 0.00 | 44 | 1017.0 |
| 20260502170203 | 54 | 55 | 3.0 | 7.0 | 0.00 | 0.00 | 0.00 | 44 | 1017.3 |
| 20260502163704 | 53 | 10 | 2.0 | 6.0 | 0.00 | 0.00 | 0.00 | 47 | 1017.5 |
| 20260502163203 | 53 | 95 | 1.0 | 6.0 | 0.00 | 0.00 | 0.00 | 47 | 1017.6 |
| 20260502162703 | 53 | 35 | 2.0 | 6.0 | 0.00 | 0.00 | 0.00 | 46 | 1017.7 |
| 20260502162203 | 53 | 16 | 2.0 | 6.0 | 0.00 | 0.00 | 0.00 | 46 | 1017.7 |
| 20260502161703 | 53 | 99 | 2.0 | 6.0 | 0.00 | 0.00 | 0.00 | 47 | 1017.7 |
| 20260502161203 | 53 | 65 | 2.0 | 5.0 | 0.00 | 0.00 | 0.00 | 47 | 1017.8 |
| 20260502160703 | 53 | 122 | 2.0 | 6.0 | 0.00 | 0.00 | 0.00 | 47 | 1017.8 |
| 20260502160203 | 53 | 108 | 1.0 | 5.0 | 0.00 | 0.00 | 0.00 | 49 | 1017.8 |
| 20260502151705 | 51 | 137 | 0.0 | 2.0 | 0.00 | 0.00 | 0.00 | 50 | 1018.0 |
| 20260502151205 | 51 | 127 | 2.0 | 6.0 | 0.00 | 0.00 | 0.00 | 50 | 1018.0 |
| 20260502150703 | 51 | 142 | 0.0 | 2.0 | 0.00 | 0.00 | 0.00 | 50 | 1018.1 |
| 20260502150204 | 50 | 108 | 1.0 | 5.0 | 0.00 | 0.00 | 0.00 | 52 | 1018.0 |
| 20260502130203 | 44 | 187 | 1.0 | 3.0 | 0.00 | 0.01 | 0.00 | 64 | 1017.7 |
| 20260502123204 | 42 | 8 | 0.0 | 0.0 | 0.00 | 0.01 | 0.00 | 71 | 1017.6 |
| 20260502122703 | 42 | 6 | 0.0 | 0.0 | 0.00 | 0.01 | 0.00 | 72 | 1017.7 |
| 20260502121703 | 41 | 280 | 0.0 | 0.0 | 0.00 | 0.01 | 0.00 | 73 | 1017.6 |
| 20260502121203 | 41 | 194 | 0.0 | 0.0 | 0.00 | 0.01 | 0.00 | 73 | 1017.6 |
| 20260502120204 | 41 | 216 | 0.0 | 0.0 | 0.00 | 0.01 | 0.00 | 74 | 1017.6 |
| 20260502115703 | 40 | 316 | 0.0 | 1.0 | 0.00 | 0.01 | 0.00 | 75 | 1017.6 |
| 20260502114703 | 40 | 237 | 0.0 | 0.0 | 0.00 | 0.01 | 0.00 | 78 | 1017.5 |
| 20260502114203 | 40 | 238 | 0.0 | 0.0 | 0.00 | 0.01 | 0.00 | 79 | 1017.4 |
| 20260502113703 | 40 | 255 | 0.0 | 0.0 | 0.00 | 0.01 | 0.00 | 78 | 1017.4 |
| 20260502112703 | 40 | 0 | 0.0 | 0.0 | 0.00 | 0.01 | 0.00 | 78 | 1017.2 |
| 20260502112204 | 40 | 0 | 0.0 | 0.0 | 0.00 | 0.01 | 0.00 | 79 | 1017.1 |
| 20260502111703 | 40 | 0 | 0.0 | 0.0 | 0.00 | 0.01 | 0.00 | 79 | 1017.0 |
| 20260502111205 | 40 | 0 | 0.0 | 0.0 | 0.00 | 0.01 | 0.00 | 79 | 1016.8 |
| 20260502110703 | 39 | 0 | 0.0 | 0.0 | 0.00 | 0.01 | 0.00 | 78 | 1016.8 |
| 20260502110203 | 39 | 0 | 0.0 | 0.0 | 0.00 | 0.01 | 0.00 | 78 | 1017.0 |
| 20260502105703 | 39 | 0 | 0.0 | 0.0 | 0.00 | 0.01 | 0.00 | 78 | 1017.0 |
| 20260502105203 | 39 | 0 | 0.0 | 0.0 | 0.00 | 0.01 | 0.00 | 78 | 1017.0 |
| 20260502104703 | 39 | 0 | 0.0 | 0.0 | 0.00 | 0.01 | 0.00 | 78 | 1017.0 |
| 20260502104205 | 39 | 0 | 0.0 | 0.0 | 0.00 | 0.01 | 0.00 | 78 | 1017.0 |
| 20260502103705 | 39 | 0 | 0.0 | 0.0 | 0.00 | 0.01 | 0.00 | 79 | 1016.9 |
| 20260502103203 | 39 | 0 | 0.0 | 0.0 | 0.00 | 0.01 | 0.00 | 79 | 1017.0 |
| 20260502102703 | 38 | 0 | 0.0 | 0.0 | 0.00 | 0.01 | 0.00 | 79 | 1017.0 |
| 20260502102203 | 38 | 0 | 0.0 | 0.0 | 0.00 | 0.01 | 0.00 | 79 | 1016.9 |
| 20260502101204 | 38 | 0 | 0.0 | 0.0 | 0.00 | 0.01 | 0.00 | 80 | 1016.8 |
| 20260502100703 | 38 | 0 | 0.0 | 0.0 | 0.00 | 0.01 | 0.00 | 80 | 1016.8 |
| 20260502100204 | 38 | 0 | 0.0 | 0.0 | 0.00 | 0.01 | 0.00 | 80 | 1016.9 |
| 20260502091203 | 39 | 0 | 0.0 | 0.0 | 0.00 | 0.01 | 0.00 | 78 | 1016.8 |
| 20260502090703 | 39 | 0 | 0.0 | 0.0 | 0.00 | 0.01 | 0.00 | 78 | 1016.9 |
| 20260502090204 | 39 | 0 | 0.0 | 0.0 | 0.00 | 0.01 | 0.00 | 78 | 1016.8 |
| 20260502071204 | 41 | 0 | 0.0 | 0.0 | 0.00 | 0.01 | 0.00 | 73 | 1016.6 |
| 20260502070703 | 41 | 0 | 0.0 | 0.0 | 0.00 | 0.01 | 0.00 | 73 | 1016.5 |
| 20260502070203 | 42 | 0 | 0.0 | 0.0 | 0.00 | 0.01 | 0.00 | 74 | 1016.5 |
| 20260502065704 | 42 | 0 | 0.0 | 0.0 | 0.00 | 0.01 | 0.00 | 74 | 1016.5 |
| 20260502064203 | 42 | 0 | 0.0 | 0.0 | 0.00 | 0.01 | 0.00 | 74 | 1016.7 |
| 20260502063204 | 42 | 0 | 0.0 | 0.0 | 0.00 | 0.01 | 0.00 | 75 | 1016.9 |
| 20260502062703 | 42 | 0 | 0.0 | 0.0 | 0.00 | 0.01 | 0.00 | 76 | 1016.9 |
| 20260502062204 | 42 | 0 | 0.0 | 0.0 | 0.00 | 0.01 | 0.00 | 76 | 1017.0 |
| 20260502061704 | 42 | 0 | 0.0 | 0.0 | 0.00 | 0.01 | 0.00 | 77 | 1017.1 |
| 20260502061203 | 42 | 0 | 0.0 | 0.0 | 0.00 | 0.01 | 0.00 | 77 | 1017.1 |
| 20260502060704 | 42 | 0 | 0.0 | 0.0 | 0.00 | 0.01 | 0.00 | 78 | 1017.2 |
| 20260502060203 | 42 | 0 | 0.0 | 0.0 | 0.00 | 0.01 | 0.00 | 78 | 1017.2 |
| 20260502055704 | 42 | 0 | 0.0 | 0.0 | 0.00 | 0.01 | 0.00 | 78 | 1017.2 |
| 20260502055203 | 42 | 0 | 0.0 | 0.0 | 0.00 | 0.01 | 0.00 | 79 | 1017.2 |
| 20260502054703 | 42 | 0 | 0.0 | 0.0 | 0.00 | 0.01 | 0.00 | 79 | 1017.2 |
| 20260502054203 | 42 | 0 | 0.0 | 0.0 | 0.00 | 0.01 | 0.00 | 79 | 1017.2 |
| 20260502053703 | 42 | 0 | 0.0 | 0.0 | 0.00 | 0.01 | 0.00 | 79 | 1017.2 |
| 20260502053203 | 42 | 0 | 0.0 | 0.0 | 0.00 | 0.01 | 0.00 | 79 | 1017.1 |
| 20260502052704 | 42 | 0 | 0.0 | 0.0 | 0.00 | 0.01 | 0.00 | 79 | 1017.1 |
| 20260502052203 | 42 | 0 | 0.0 | 0.0 | 0.00 | 0.01 | 0.00 | 79 | 1017.2 |
| 20260502051703 | 42 | 0 | 0.0 | 0.0 | 0.00 | 0.01 | 0.00 | 79 | 1017.1 |
| 20260502050703 | 42 | 0 | 0.0 | 0.0 | 0.00 | 0.01 | 0.00 | 79 | 1017.2 |
| 20260502050203 | 42 | 0 | 0.0 | 0.0 | 0.00 | 0.01 | 0.00 | 78 | 1017.1 |
| 20260502045704 | 42 | 0 | 0.0 | 0.0 | 0.00 | 0.01 | 0.00 | 78 | 1017.1 |
| 20260502045203 | 42 | 0 | 0.0 | 0.0 | 0.00 | 0.01 | 0.00 | 78 | 1017.1 |
| 20260502044703 | 42 | 0 | 0.0 | 0.0 | 0.00 | 0.01 | 0.00 | 78 | 1017.1 |
| 20260502044204 | 42 | 0 | 0.0 | 0.0 | 0.00 | 0.01 | 0.00 | 78 | 1017.1 |
| 20260502043203 | 42 | 0 | 0.0 | 0.0 | 0.00 | 0.01 | 0.00 | 77 | 1017.2 |
| 20260502042203 | 43 | 0 | 0.0 | 0.0 | 0.00 | 0.01 | 0.00 | 78 | 1017.2 |
| 20260502041703 | 43 | 0 | 0.0 | 0.0 | 0.00 | 0.01 | 0.00 | 76 | 1017.2 |
| 20260502040705 | 43 | 0 | 0.0 | 0.0 | 0.00 | 0.01 | 0.00 | 76 | 1017.1 |
| 20260502040203 | 44 | 0 | 0.0 | 0.0 | 0.00 | 0.01 | 0.00 | 76 | 1017.0 |
| 20260502035203 | 44 | 0 | 0.0 | 0.0 | 0.00 | 0.01 | 0.01 | 75 | 1017.2 |
| 20260502034704 | 44 | 0 | 0.0 | 0.0 | 0.00 | 0.01 | 0.01 | 75 | 1017.1 |
| 20260502033704 | 44 | 0 | 0.0 | 0.0 | 0.00 | 0.01 | 0.01 | 74 | 1017.3 |
| 20260502033203 | 44 | 0 | 0.0 | 0.0 | 0.00 | 0.01 | 0.01 | 74 | 1017.3 |
| 20260502032704 | 45 | 0 | 0.0 | 0.0 | 0.00 | 0.01 | 0.01 | 72 | 1017.3 |
| 20260502032204 | 45 | 0 | 0.0 | 0.0 | 0.00 | 0.01 | 0.01 | 71 | 1017.2 |
| 20260502031703 | 45 | 0 | 0.0 | 0.0 | 0.00 | 0.01 | 0.01 | 71 | 1017.2 |
| 20260502031203 | 45 | 0 | 0.0 | 0.0 | 0.00 | 0.01 | 0.01 | 70 | 1017.2 |
| 20260502030703 | 45 | 0 | 0.0 | 0.0 | 0.00 | 0.01 | 0.01 | 70 | 1017.2 |
| 20260502030203 | 46 | 0 | 0.0 | 0.0 | 0.00 | 0.01 | 0.01 | 69 | 1017.1 |
| 20260502025703 | 46 | 0 | 0.0 | 0.0 | 0.00 | 0.01 | 0.01 | 69 | 1017.1 |
| 20260502025203 | 46 | 0 | 0.0 | 0.0 | 0.00 | 0.01 | 0.01 | 70 | 1017.1 |
| 20260502024204 | 46 | 0 | 0.0 | 0.0 | 0.00 | 0.01 | 0.01 | 70 | 1017.0 |
| 20260502023704 | 46 | 0 | 0.0 | 0.0 | 0.00 | 0.01 | 0.01 | 69 | 1017.0 |
| 20260502022703 | 46 | 0 | 0.0 | 0.0 | 0.00 | 0.01 | 0.01 | 69 | 1016.8 |
| 20260502022205 | 46 | 0 | 0.0 | 0.0 | 0.00 | 0.01 | 0.01 | 69 | 1016.9 |
| 20260502021703 | 46 | 0 | 0.0 | 0.0 | 0.00 | 0.01 | 0.01 | 69 | 1016.8 |
| 20260502021205 | 46 | 0 | 0.0 | 0.0 | 0.00 | 0.01 | 0.01 | 69 | 1016.8 |
| 20260502020204 | 46 | 0 | 0.0 | 0.0 | 0.00 | 0.01 | 0.01 | 69 | 1016.7 |
| 20260502015703 | 47 | 0 | 0.0 | 0.0 | 0.00 | 0.01 | 0.01 | 69 | 1016.4 |
| 20260502015203 | 47 | 0 | 0.0 | 0.0 | 0.00 | 0.01 | 0.01 | 69 | 1016.3 |
| 20260502014703 | 47 | 0 | 0.0 | 0.0 | 0.00 | 0.01 | 0.01 | 68 | 1016.2 |
| 20260502014204 | 47 | 0 | 0.0 | 0.0 | 0.00 | 0.01 | 0.01 | 68 | 1016.2 |
| 20260502013704 | 47 | 0 | 0.0 | 0.0 | 0.00 | 0.01 | 0.01 | 67 | 1016.2 |
| 20260502013203 | 47 | 0 | 0.0 | 0.0 | 0.00 | 0.01 | 0.01 | 67 | 1016.1 |
| 20260502012704 | 48 | 0 | 0.0 | 0.0 | 0.00 | 0.01 | 0.01 | 67 | 1016.1 |
| 20260502012203 | 48 | 0 | 0.0 | 0.0 | 0.00 | 0.01 | 0.01 | 67 | 1016.1 |
| 20260502011704 | 48 | 0 | 0.0 | 0.0 | 0.00 | 0.01 | 0.01 | 67 | 1015.8 |
| 20260502011203 | 48 | 0 | 0.0 | 0.0 | 0.00 | 0.01 | 0.01 | 67 | 1015.9 |
| 20260502010703 | 49 | 0 | 0.0 | 0.0 | 0.00 | 0.01 | 0.01 | 66 | 1015.9 |
| 20260502005704 | 49 | 0 | 0.0 | 0.0 | 0.00 | 0.01 | 0.01 | 65 | 1015.7 |
| 20260502005204 | 49 | 0 | 0.0 | 0.0 | 0.00 | 0.01 | 0.01 | 65 | 1015.6 |
| 20260502004703 | 50 | 0 | 0.0 | 0.0 | 0.00 | 0.01 | 0.01 | 64 | 1015.3 |
| 20260502004205 | 50 | 0 | 0.0 | 0.0 | 0.00 | 0.01 | 0.01 | 63 | 1015.2 |
| 20260502003704 | 50 | 0 | 0.0 | 0.0 | 0.00 | 0.01 | 0.01 | 62 | 1015.0 |
| 20260502003204 | 50 | 0 | 0.0 | 0.0 | 0.00 | 0.01 | 0.01 | 61 | 1014.8 |
| 20260502002704 | 51 | 0 | 0.0 | 0.0 | 0.00 | 0.01 | 0.01 | 61 | 1014.7 |
| 20260502002203 | 51 | 0 | 0.0 | 0.0 | 0.00 | 0.01 | 0.01 | 61 | 1014.6 |
| 20260502001204 | 51 | 0 | 0.0 | 0.0 | 0.00 | 0.01 | 0.01 | 60 | 1014.6 |
| 20260502000704 | 51 | 0 | 0.0 | 0.0 | 0.00 | 0.01 | 0.01 | 60 | 1014.6 |
| 20260502000204 | 52 | 188 | 0.0 | 0.0 | 0.00 | 0.01 | 0.01 | 60 | 1014.6 |
| 20260501235704 | 52 | 174 | 0.0 | 0.0 | 0.00 | 0.01 | 0.01 | 60 | 1014.8 |
| 20260501235203 | 52 | 172 | 0.0 | 2.0 | 0.00 | 0.01 | 0.01 | 58 | 1014.8 |
| 20260501234704 | 52 | 172 | 0.0 | 2.0 | 0.00 | 0.01 | 0.01 | 57 | 1014.8 |
| 20260501234203 | 52 | 29 | 0.0 | 2.0 | 0.00 | 0.01 | 0.01 | 58 | 1014.8 |
| 20260501232705 | 53 | 142 | 0.0 | 3.0 | 0.00 | 0.01 | 0.01 | 57 | 1014.8 |
| 20260501232204 | 53 | 169 | 1.0 | 5.0 | 0.00 | 0.01 | 0.01 | 56 | 1014.7 |
| 20260501231704 | 53 | 14 | 0.0 | 3.0 | 0.00 | 0.01 | 0.01 | 55 | 1014.6 |
| 20260501231204 | 54 | 114 | 2.0 | 5.0 | 0.00 | 0.01 | 0.01 | 54 | 1014.6 |
| 20260501230703 | 54 | 157 | 1.0 | 6.0 | 0.00 | 0.01 | 0.01 | 52 | 1014.7 |
| 20260501230203 | 54 | 93 | 1.0 | 6.0 | 0.00 | 0.01 | 0.01 | 52 | 1014.5 |
| 20260501225703 | 54 | 115 | 1.0 | 3.0 | 0.00 | 0.01 | 0.01 | 52 | 1014.5 |
| 20260501225203 | 54 | 76 | 0.0 | 2.0 | 0.00 | 0.01 | 0.01 | 52 | 1014.5 |
| 20260501224704 | 54 | 98 | 1.0 | 3.0 | 0.00 | 0.01 | 0.01 | 53 | 1014.5 |
| 20260501224204 | 54 | 67 | 0.0 | 2.0 | 0.00 | 0.01 | 0.01 | 54 | 1014.5 |
| 20260501223703 | 54 | 25 | 0.0 | 2.0 | 0.00 | 0.01 | 0.01 | 54 | 1014.5 |
| 20260501223203 | 54 | 143 | 1.0 | 9.0 | 0.00 | 0.01 | 0.01 | 54 | 1014.5 |
| 20260501222204 | 54 | 106 | 1.0 | 7.0 | 0.00 | 0.01 | 0.01 | 54 | 1014.6 |
| 20260501221704 | 54 | 136 | 0.0 | 3.0 | 0.00 | 0.01 | 0.01 | 55 | 1014.7 |
| 20260501221203 | 54 | 113 | 1.0 | 2.0 | 0.00 | 0.01 | 0.01 | 55 | 1014.7 |
| 20260501220704 | 54 | 132 | 0.0 | 3.0 | 0.00 | 0.01 | 0.01 | 56 | 1014.7 |